Temp
76 86 90 85 72 73 69 69 74 72 73 78 77 75 76 78 72 67 80 76 78 83 83 81 73 74 75 76 75 75 76 76 76 76 76 76 76 76 76 76 76 76 77 77 77 77 76 75 74
87 84 86 84 69 66 69 72 70 75 77 77 76 75 74 72 77 77 78 77 78 84 84 83 73 73 75 75 75 75 76 76 76 76 76 76 76 76 75 75 75 76 77 77 77 76 75 74 73
85 85 81 76 71 67 69 73 75 77 78 76 75 76 74 73 75 77 78 77 74 83 85 85 72 73 74 74 75 75 75 75 75 75 76 76 76 76 75 75 75 76 77 77 76 75 73 72 71
85 84 81 70 67 71 72 76 77 76 78 79 78 72 76 78 75 77 78 78 70 75 85 77 71 72 74 74 74 74 74 74 74 74 75 75 76 75 75 75 75 76 76 76 75 73 72 70 70
87 83 71 68 69 72 76 78 78 75 74 75 76 73 73 77 78 77 77 78 74 68 80 81 70 72 74 75 74 74 73 73 73 74 74 75 75 75 74 74 75 75 75 74 73 72 70 70 70
78 80 67 66 69 73 77 79 78 75 76 76 73 74 75 76 76 76 73 77 77 69 77 78 74 72 73 74 73 72 72 73 73 73 74 74 74 74 74 74 74 74 73 72 71 70 70 70 69
76 73 69 69 68 70 73 77 75 76 75 76 74 69 76 75 76 77 75 75 76 69 67 74 74 77 72 72 71 70 72 72 72 73 73 73 72 72 73 73 73 72 72 71 70 70 69 69 69
79 76 68 70 68 69 75 75 78 75 77 73 76 71 73 73 75 74 74 76 74 73 65 69 69 72 77 73 67 70 70 71 72 72 71 70 71 71 71 71 72 71 70 70 70 69 69 69 68
80 69 66 69 68 72 76 74 80 78 76 73 75 75 75 74 75 73 74 72 71 67 69 67 64 66 70 70 68 71 72 70 71 70 69 70 76 76 76 74 70 70 69 69 69 69 68 67 67
74 69 70 76 76 74 77 76 78 74 75 73 73 74 73 73 73 71 71 70 68 64 65 67 63 67 69 70 65 66 68 73 70 70 71 75 75 75 79 72 69 69 68 68 68 67 67 70 77
74 69 76 74 77 78 76 76 78 75 72 76 73 73 72 72 72 70 71 69 70 68 63 69 65 67 66 63 62 64 65 65 65 66 68 73 76 77 77 76 75 75 71 77 74 72 79 79 79
68 74 76 77 77 76 74 78 75 76 76 75 75 75 73 72 70 69 68 67 66 65 65 64 66 65 65 63 63 64 65 65 64 64 68 73 75 76 76 78 78 77 79 77 77 78 78 78 79
69 75 76 78 77 76 77 74 75 76 77 75 73 72 71 71 70 70 66 69 66 62 64 65 63 63 63 62 61 63 64 64 64 65 72 74 74 75 78 79 80 80 81 79 78 79 78 77 77
74 75 76 77 76 77 71 76 70 77 77 73 71 69 69 67 67 69 65 61 67 63 62 62 64 63 63 60 61 62 63 63 63 66 74 75 75 74 76 77 79 80 80 80 80 79 78 78 78
75 68 72 74 76 75 76 71 70 79 75 72 72 71 69 69 70 69 68 67 62 67 65 63 61 62 61 61 61 61 62 63 63 70 72 75 73 71 72 77 78 79 80 79 79 78 79 79 78
68 69 63 74 75 74 72 63 76 76 73 73 73 71 70 70 71 73 70 65 61 62 62 64 65 62 62 61 61 61 61 62 63 68 70 71 71 71 73 77 78 79 78 78 78 77 76 77 77
65 60 62 68 74 72 69 66 75 74 72 74 73 73 72 72 71 72 71 69 64 62 61 62 62 61 62 62 61 61 61 61 62 66 71 70 72 73 75 76 76 76 78 77 77 76 76 75 76
59 60 65 64 70 70 69 68 75 76 73 71 75 74 73 72 72 73 68 69 67 65 61 62 62 62 62 62 61 61 60 60 61 65 71 73 74 73 75 76 75 77 77 76 75 74 75 75 76
66 63 63 68 70 66 67 69 74 76 75 72 74 74 73 73 75 74 70 66 66 65 62 60 59 60 60 59 60 60 59 60 61 64 69 71 72 73 75 76 74 76 76 76 73 74 71 73 74
63 60 62 67 67 66 68 68 75 75 75 76 75 75 74 74 73 71 70 69 63 67 63 61 60 61 61 60 60 61 61 62 64 65 68 71 71 74 74 75 74 75 76 74 72 72 71 74 72
61 59 60 61 64 68 66 64 70 76 74 75 76 78 78 75 73 71 69 69 68 67 64 61 61 60 61 60 61 60 59 59 60 63 69 71 73 76 76 74 75 74 75 73 71 71 71 71 71
56 65 62 61 59 55 66 53 68 72 74 73 76 75 76 77 76 74 71 70 70 70 69 65 62 61 60 60 60 58 57 58 61 63 70 73 73 73 75 74 73 73 74 73 73 73 72 72 70
60 65 62 62 59 59 60 56 64 71 68 74 78 78 77 78 77 75 73 73 73 72 70 67 64 63 61 61 61 59 59 61 62 63 64 68 71 73 74 74 73 73 74 72 72 71 70 73 70
66 61 61 60 58 47 57 57 60 67 70 74 79 81 80 78 78 77 76 75 74 73 71 68 65 63 62 61 62 60 61 63 64 61 61 61 63 68 70 73 72 71 72 72 71 72 70 70 71
63 56 48 46 46 45 60 56 60 70 74 76 77 81 79 79 77 76 75 74 73 71 70 69 66 63 63 62 63 64 64 65 67 65 65 65 62 62 64 68 70 70 70 72 73 71 71 70 69
57 58 50 39 42 50 57 51 61 73 76 78 80 80 79 78 77 77 77 75 74 72 70 68 69 69 67 64 64 68 69 70 69 70 71 71 70 71 67 70 71 71 72 72 72 72 72 71 70
57 52 62 52 51 49 55 60 68 73 74 76 78 79 80 81 79 78 78 76 75 73 70 66 69 71 71 69 68 67 69 70 71 72 72 72 73 74 72 71 70 71 71 71 71 71 70 71 70
61 65 50 52 40 39 51 54 58 64 69 74 76 77 80 83 81 80 79 77 76 75 72 67 69 71 73 72 71 71 70 71 72 72 71 72 72 72 71 70 69 71 71 71 70 70 71 71 71
56 55 56 58 54 45 44 53 67 67 67 68 74 77 80 80 81 80 79 78 77 76 74 70 69 71 72 71 71 70 71 71 71 71 71 71 71 71 71 71 71 70 71 71 71 70 71 69 69
63 58 58 49 47 51 49 54 70 67 68 71 72 75 78 80 81 81 79 78 76 75 75 74 71 72 72 72 70 69 70 70 69 69 70 70 70 70 71 71 71 71 73 73 71 69 69 69 67
MSLP
1012.89 1012.35 1011.72 1010.94 1009.53 1007.34 1006.04 1006.37 1007.03 1006.76 1006.90 1007.61 1007.92 1007.88 1007.59 1007.51 1007.57 1008.19 1009.79 1010.65 1010.60 1010.28 1010.45 1011.39 1011.85 1011.60 1011.74 1011.63 1011.88 1011.91 1013.28 1013.71 1014.40 1014.73 1014.96 1015.40 1014.77 1015.95 1016.64 1016.74 1017.32 1017.72 1018.10 1018.47 1018.71 1019.17 1019.60 1020.01 1020.22
1011.87 1011.95 1011.19 1009.45 1007.80 1005.72 1005.27 1006.44 1006.38 1006.57 1007.19 1007.96 1008.25 1008.23 1008.12 1007.70 1008.71 1009.00 1009.76 1010.61 1010.79 1010.40 1010.55 1011.08 1011.99 1011.78 1011.96 1011.93 1012.38 1012.66 1013.11 1013.64 1014.25 1014.90 1015.23 1015.80 1015.56 1015.96 1016.83 1017.13 1017.60 1017.98 1018.47 1018.84 1019.22 1019.55 1020.19 1020.54 1020.69
1011.78 1011.50 1009.63 1008.17 1006.67 1005.23 1005.05 1006.10 1006.28 1006.82 1007.53 1007.90 1007.96 1008.47 1008.57 1008.30 1009.35 1009.58 1010.41 1010.74 1011.05 1010.44 1010.52 1010.96 1011.91 1012.00 1012.12 1012.33 1012.67 1012.83 1013.44 1013.73 1014.49 1014.89 1015.65 1015.94 1016.10 1016.09 1017.17 1017.55 1017.99 1018.58 1019.10 1019.40 1019.51 1020.10 1020.71 1020.98 1021.18
1010.94 1010.49 1009.74 1007.86 1005.81 1005.76 1005.70 1005.81 1006.27 1006.65 1007.26 1007.86 1007.99 1008.09 1008.85 1009.31 1009.60 1010.17 1010.64 1010.78 1011.24 1011.00 1010.55 1011.02 1011.89 1012.19 1012.09 1012.33 1012.74 1013.00 1013.43 1013.98 1014.44 1015.33 1015.73 1016.35 1016.47 1016.21 1017.40 1017.92 1018.37 1018.87 1019.43 1019.57 1019.98 1020.58 1021.10 1021.56 1021.47
1010.39 1009.20 1007.68 1006.76 1005.78 1005.91 1006.11 1006.19 1006.57 1006.73 1007.24 1007.72 1008.25 1007.63 1008.34 1009.28 1010.06 1010.56 1010.76 1011.00 1010.95 1011.22 1010.77 1011.08 1011.92 1012.13 1011.91 1012.03 1012.69 1013.16 1013.61 1014.13 1014.79 1015.31 1015.72 1016.60 1016.79 1016.57 1017.55 1018.30 1018.69 1019.19 1019.75 1020.09 1020.58 1021.12 1021.35 1021.83 1021.84
1009.01 1008.53 1006.93 1005.71 1005.45 1005.90 1005.99 1006.30 1006.65 1006.91 1007.20 1007.64 1008.08 1008.04 1008.13 1009.50 1009.92 1010.44 1011.20 1010.98 1010.90 1011.17 1010.86 1011.22 1011.90 1012.09 1011.92 1012.06 1012.23 1013.21 1013.63 1014.26 1015.08 1015.56 1015.94 1016.72 1017.12 1017.12 1017.77 1018.56 1018.89 1019.79 1020.02 1020.54 1021.23 1021.63 1021.76 1022.05 1022.41
1008.15 1007.50 1006.12 1005.64 1005.44 1005.74 1005.98 1006.66 1006.57 1006.58 1007.03 1007.23 1008.20 1008.07 1008.25 1009.21 1009.97 1010.52 1010.97 1011.11 1011.15 1011.38 1011.61 1011.35 1011.85 1012.02 1012.13 1012.51 1012.84 1013.22 1013.66 1014.32 1014.96 1015.89 1016.25 1016.56 1017.44 1017.58 1018.14 1018.60 1019.52 1019.88 1020.36 1021.06 1021.62 1021.94 1022.22 1022.42 1022.74
1008.20 1007.45 1006.15 1005.91 1005.39 1005.23 1006.22 1006.50 1006.57 1006.92 1006.73 1008.24 1008.38 1007.56 1007.81 1009.26 1010.13 1010.73 1010.88 1010.75 1011.03 1011.35 1011.85 1012.04 1012.37 1012.63 1012.85 1013.29 1013.27 1013.25 1013.67 1014.47 1015.21 1016.11 1016.72 1016.84 1017.77 1018.17 1018.53 1018.84 1019.77 1020.12 1020.86 1021.32 1021.99 1022.29 1022.50 1022.84 1023.43
1008.55 1007.06 1005.64 1005.29 1005.56 1005.25 1006.22 1006.08 1006.22 1007.10 1007.18 1008.01 1008.20 1008.05 1008.67 1009.56 1010.06 1010.40 1010.31 1010.69 1011.01 1011.71 1012.04 1012.52 1012.97 1013.27 1013.51 1013.65 1014.15 1014.50 1014.73 1014.98 1015.67 1016.22 1016.89 1016.89 1017.89 1018.60 1018.62 1019.08 1020.06 1020.62 1021.03 1021.72 1022.40 1022.55 1023.00 1023.43 1023.75
1007.55 1006.25 1005.30 1005.47 1005.66 1005.64 1005.66 1005.74 1005.73 1006.47 1006.49 1007.20 1007.87 1008.49 1009.18 1009.51 1009.72 1010.13 1010.14 1010.36 1010.95 1011.69 1011.90 1012.28 1012.28 1013.21 1013.81 1014.20 1014.75 1015.00 1015.33 1015.21 1016.13 1016.60 1017.04 1017.28 1018.01 1018.46 1018.61 1019.76 1020.41 1020.97 1021.45 1022.24 1022.58 1022.97 1023.37 1023.35 1023.48
1006.89 1005.71 1005.42 1006.02 1006.08 1006.00 1005.71 1005.58 1005.85 1005.78 1005.80 1006.35 1007.14 1007.86 1008.94 1009.24 1009.68 1010.12 1010.16 1010.70 1010.71 1011.51 1012.05 1011.85 1012.53 1013.28 1013.90 1014.83 1015.01 1015.37 1015.62 1016.30 1016.77 1017.22 1017.54 1017.62 1018.05 1018.57 1019.47 1019.92 1020.75 1021.03 1021.81 1022.07 1022.72 1023.30 1022.55 1022.63 1022.83
1006.59 1005.93 1005.64 1005.86 1006.03 1006.06 1005.78 1005.60 1005.45 1005.63 1005.82 1006.97 1007.43 1007.94 1008.68 1008.98 1009.51 1010.13 1010.52 1010.94 1011.36 1011.78 1012.04 1012.14 1012.53 1012.96 1013.30 1014.45 1015.11 1015.35 1015.75 1016.52 1017.26 1017.86 1018.31 1018.25 1018.26 1018.70 1019.20 1019.42 1020.04 1020.54 1021.15 1021.63 1022.13 1022.34 1022.35 1022.69 1022.77
1006.45 1005.37 1005.49 1005.87 1005.98 1006.04 1005.92 1005.55 1005.31 1005.26 1006.14 1007.21 1007.74 1008.24 1008.78 1009.07 1009.59 1010.27 1010.95 1011.12 1011.49 1012.04 1012.25 1012.60 1012.80 1013.28 1013.83 1014.35 1014.85 1014.88 1015.10 1016.29 1017.06 1017.72 1017.80 1018.32 1018.35 1018.45 1018.64 1019.22 1019.61 1020.03 1020.50 1021.24 1021.75 1022.01 1022.59 1022.91 1023.07
1005.66 1005.58 1005.16 1005.34 1005.53 1005.63 1005.86 1004.92 1005.87 1004.99 1006.05 1006.88 1007.59 1008.19 1008.85 1009.40 1009.90 1010.23 1010.98 1011.54 1011.53 1012.14 1012.34 1012.78 1013.12 1013.51 1013.81 1014.47 1014.46 1014.29 1014.72 1016.20 1017.05 1017.42 1017.65 1018.09 1018.17 1018.78 1018.89 1019.27 1019.69 1020.12 1020.59 1021.13 1021.64 1021.98 1022.38 1022.80 1023.10
1005.79 1005.64 1005.11 1004.89 1004.97 1004.87 1005.39 1004.59 1004.51 1004.50 1005.89 1006.41 1007.09 1007.79 1008.46 1009.00 1009.51 1010.07 1010.48 1011.17 1011.97 1012.02 1012.52 1012.84 1013.32 1013.57 1013.94 1014.46 1014.52 1014.44 1015.04 1016.14 1017.06 1017.10 1017.85 1018.05 1018.54 1018.87 1019.16 1019.22 1019.75 1020.18 1020.62 1021.07 1021.55 1022.11 1022.16 1022.52 1022.99
1005.79 1005.35 1004.15 1003.63 1004.16 1004.68 1005.33 1003.53 1003.26 1004.62 1005.37 1005.64 1006.39 1007.21 1007.95 1008.41 1008.94 1009.35 1010.34 1011.17 1011.90 1012.29 1012.71 1013.02 1013.50 1013.81 1014.15 1014.53 1014.51 1014.83 1015.66 1016.56 1017.30 1017.62 1018.20 1018.36 1018.67 1019.07 1018.94 1019.38 1019.91 1020.33 1020.79 1021.31 1021.69 1022.01 1022.23 1022.63 1022.89
1005.15 1003.87 1003.62 1003.39 1004.10 1004.17 1004.79 1003.26 1003.40 1004.55 1004.94 1004.78 1005.50 1006.30 1007.04 1007.57 1008.59 1009.02 1009.91 1010.81 1011.67 1012.28 1012.69 1013.14 1013.58 1013.99 1014.26 1014.70 1014.98 1015.57 1016.40 1016.98 1017.57 1017.74 1017.88 1018.20 1018.53 1019.19 1019.28 1019.53 1020.08 1020.62 1020.85 1021.12 1021.51 1021.87 1022.11 1022.47 1022.69
1003.82 1003.86 1003.37 1003.23 1003.51 1004.02 1003.54 1003.23 1002.99 1003.65 1004.17 1004.38 1004.46 1005.39 1006.13 1006.89 1007.59 1008.58 1009.83 1010.52 1011.29 1011.91 1012.45 1012.82 1013.41 1013.97 1014.50 1014.89 1015.33 1016.08 1016.70 1017.28 1017.77 1017.96 1018.00 1018.49 1018.70 1019.43 1019.39 1019.48 1020.02 1020.32 1020.62 1021.07 1021.53 1021.90 1022.11 1022.30 1022.49
1003.95 1003.86 1003.24 1003.00 1003.65 1003.83 1003.13 1002.60 1002.26 1002.42 1003.17 1003.44 1003.73 1004.40 1005.30 1005.99 1007.01 1008.13 1009.12 1010.42 1010.97 1011.51 1012.16 1012.66 1013.21 1013.94 1014.35 1014.93 1015.33 1015.97 1016.53 1017.17 1017.55 1017.95 1018.31 1018.78 1018.97 1019.38 1019.14 1019.21 1019.97 1020.15 1020.28 1020.56 1021.42 1021.88 1022.20 1022.39 1022.62
1004.57 1004.15 1003.64 1003.51 1004.15 1004.03 1002.62 1002.03 1001.54 1001.64 1002.01 1002.36 1002.78 1003.31 1004.19 1005.12 1006.26 1007.39 1008.43 1009.51 1010.66 1010.91 1011.74 1012.40 1012.91 1013.59 1014.24 1014.79 1015.43 1016.02 1016.41 1017.04 1017.35 1017.92 1018.32 1018.57 1018.68 1018.83 1018.98 1019.03 1019.59 1019.96 1020.00 1020.58 1021.21 1021.57 1021.79 1021.86 1022.50
1004.21 1004.07 1003.97 1003.93 1004.07 1003.85 1002.90 1001.79 1000.98 1000.77 1001.45 1001.80 1002.14 1002.43 1002.99 1003.90 1005.00 1006.31 1007.49 1008.52 1009.64 1010.20 1011.11 1012.05 1012.62 1013.27 1013.93 1014.59 1015.32 1016.01 1016.64 1017.39 1017.84 1017.81 1017.79 1017.87 1018.13 1018.26 1018.67 1019.19 1019.31 1019.83 1019.90 1020.33 1020.98 1021.26 1021.42 1021.52 1022.19
1003.75 1004.08 1004.48 1004.23 1004.19 1002.61 1002.54 1000.79 999.79 999.98 999.93 1000.52 1000.89 1001.50 1002.02 1002.87 1004.01 1005.20 1006.34 1007.48 1008.43 1009.27 1010.26 1011.37 1012.33 1012.98 1013.59 1014.18 1014.80 1015.44 1015.74 1016.29 1016.63 1016.92 1017.13 1017.21 1017.73 1018.02 1018.33 1018.80 1019.23 1019.50 1019.63 1019.91 1020.31 1020.55 1020.95 1021.34 1021.06
1003.73 1004.07 1004.46 1004.23 1003.88 1003.31 1002.52 1001.61 999.63 999.32 999.15 998.98 999.14 1000.07 1000.90 1001.77 1002.95 1004.01 1005.23 1006.27 1007.44 1008.60 1009.61 1010.47 1011.67 1012.43 1013.03 1013.62 1014.13 1014.80 1015.32 1015.82 1016.35 1016.92 1017.23 1017.20 1017.27 1017.47 1017.85 1018.24 1018.70 1018.86 1018.98 1019.33 1019.85 1019.97 1020.43 1020.64 1020.93
1004.16 1004.50 1004.46 1004.31 1003.75 1002.86 1002.08 1001.36 999.03 998.17 998.27 998.17 998.27 998.85 999.83 1000.90 1002.00 1003.18 1004.53 1005.73 1006.63 1007.83 1008.95 1009.96 1010.83 1011.69 1012.51 1012.98 1013.62 1013.98 1014.28 1015.00 1015.47 1016.22 1016.74 1017.18 1017.18 1017.28 1017.42 1017.87 1018.22 1018.43 1018.52 1018.73 1019.13 1019.40 1019.82 1020.20 1020.42
1004.06 1004.13 1003.38 1003.29 1002.75 1001.92 1001.18 1000.98 999.09 998.36 998.23 998.10 998.17 998.26 999.33 1000.21 1001.24 1002.29 1003.42 1004.60 1005.65 1006.80 1008.08 1009.05 1009.97 1010.73 1011.57 1012.27 1012.71 1013.20 1013.74 1013.86 1014.24 1014.91 1015.39 1015.89 1016.43 1016.70 1017.04 1017.49 1017.67 1017.98 1018.25 1018.20 1018.43 1018.84 1019.02 1019.36 1019.79
1003.02 1002.84 1002.09 1001.66 1001.54 1001.05 1001.61 1000.23 998.66 998.32 998.10 998.11 998.00 998.50 999.06 999.82 1000.67 1001.29 1002.20 1003.60 1004.65 1005.71 1007.00 1008.26 1008.78 1009.38 1010.29 1011.08 1011.71 1011.98 1012.61 1012.94 1013.35 1013.51 1013.96 1014.39 1014.76 1015.18 1015.92 1016.40 1016.82 1017.14 1017.43 1017.85 1018.05 1018.25 1018.61 1018.80 1019.00
1002.74 1002.57 1002.69 1002.29 1002.58 1001.59 1000.37 1000.01 999.28 998.52 998.10 997.85 997.84 997.99 998.29 998.90 999.94 1000.60 1001.31 1002.46 1003.62 1004.79 1005.88 1007.26 1007.87 1008.24 1008.88 1009.73 1010.37 1011.00 1011.45 1011.72 1011.92 1012.33 1012.80 1013.21 1013.41 1013.84 1014.51 1015.18 1015.70 1016.15 1016.50 1016.92 1017.43 1017.51 1017.70 1018.06 1018.31
1002.24 1001.88 1002.44 1002.58 1001.79 1001.20 1000.10 999.59 998.64 998.34 998.07 997.71 997.46 997.77 997.82 998.05 998.87 999.63 1000.37 1001.31 1002.63 1003.78 1005.15 1006.65 1007.36 1007.48 1007.90 1008.61 1009.09 1009.53 1010.14 1010.79 1011.25 1011.77 1011.83 1012.02 1012.47 1013.06 1013.54 1014.17 1014.77 1015.09 1015.41 1015.90 1016.32 1016.46 1016.61 1016.90 1017.07
1002.19 1001.77 1001.76 1001.50 1001.57 1000.87 1000.09 999.32 999.09 998.84 999.17 999.00 998.24 997.94 997.89 998.24 998.44 999.09 999.66 1000.53 1001.73 1002.82 1003.99 1005.06 1006.11 1006.67 1007.08 1007.62 1008.25 1008.85 1009.10 1009.68 1010.31 1010.58 1011.03 1011.40 1011.98 1012.27 1012.76 1013.08 1013.59 1013.92 1014.05 1014.53 1015.07 1015.27 1015.44 1015.63 1015.83
1001.40 1001.53 1001.81 1001.67 1001.70 1001.76 1001.18 999.72 999.53 999.93 999.83 999.38 998.95 998.78 998.64 998.41 998.46 998.81 999.27 1000.02 1000.87 1001.75 1002.67 1003.48 1004.57 1005.21 1005.81 1006.59 1007.44 1007.97 1008.68 1009.10 1009.38 1009.55 1009.81 1010.48 1010.90 1011.66 1012.03 1012.37 1012.61 1012.78 1013.05 1013.27 1013.64 1013.99 1014.27 1014.50 1014.75
Wind_Speed
10 9 4 6 8 7 3 5 2 4 3 1 1 5 9 11 7 9 4 4 3 12 12 13 8 11 13 18 20 24 24 23 21 21 21 19 24 21 19 21 21 20 21 22 21 22 21 21 20
8 6 6 3 9 8 6 3 4 1 2 3 6 8 9 7 2 2 3 3 3 13 14 14 9 11 14 18 22 23 24 24 23 21 21 21 22 24 21 21 21 21 20 22 22 22 22 21 18
7 6 6 5 6 7 2 6 2 2 2 5 4 3 5 2 2 1 0 2 2 13 14 15 12 13 16 17 20 22 22 23 22 22 21 22 23 25 22 22 22 20 20 22 23 22 22 19 16
7 6 5 9 10 3 6 4 2 4 3 7 5 7 4 2 1 1 1 2 3 9 15 14 12 12 19 17 20 22 23 22 23 21 22 22 23 26 22 22 22 22 21 22 23 22 21 17 17
6 3 7 12 9 3 7 5 5 7 2 2 5 4 5 3 3 2 2 4 6 4 15 14 12 14 17 21 20 21 22 22 22 23 24 22 22 25 23 20 22 21 21 22 21 21 20 18 18
7 4 8 11 11 7 5 3 6 6 6 4 6 8 4 2 4 3 3 5 6 6 12 14 16 16 12 18 23 20 22 26 22 23 24 22 22 23 21 19 19 20 21 20 19 19 19 18 18
11 8 11 9 7 8 2 0 6 6 6 9 1 7 1 4 1 3 3 5 6 6 3 10 13 15 14 17 19 20 21 23 22 21 22 23 19 20 20 18 18 18 21 20 18 18 17 18 17
7 6 10 11 10 10 5 3 3 7 8 4 3 6 5 2 3 2 4 5 4 8 5 3 7 5 11 10 1 16 21 22 23 19 22 21 18 19 18 19 18 20 20 20 18 18 17 18 15
5 8 10 12 11 7 3 6 4 3 7 6 7 6 3 1 2 5 5 5 6 3 11 8 8 4 5 7 5 14 20 21 23 20 18 20 15 16 19 16 19 20 19 19 17 18 17 16 14
12 11 12 5 7 7 7 6 9 5 8 10 9 7 4 4 5 6 5 4 4 4 5 13 17 17 11 6 5 4 10 11 10 11 18 12 13 13 13 16 19 19 18 17 17 17 18 17 12
12 14 9 7 9 9 10 10 4 7 10 10 9 5 7 5 5 7 6 4 4 4 1 11 13 11 9 5 3 2 4 5 7 7 9 11 10 11 11 11 11 13 16 12 14 14 11 12 11
11 15 11 11 7 8 9 8 9 9 9 1 3 3 7 6 4 3 6 3 2 3 5 4 13 12 14 9 8 9 9 9 8 12 16 11 8 11 12 10 14 13 11 14 12 9 9 10 11
18 11 10 13 12 11 10 13 11 10 4 5 4 6 5 4 3 2 3 3 3 4 5 7 8 9 8 9 7 8 12 10 10 11 14 10 10 10 12 11 11 12 12 12 11 10 9 10 11
8 18 13 12 13 9 11 13 5 2 6 8 8 7 7 5 5 4 3 3 5 5 3 5 8 8 10 7 8 7 11 10 8 11 11 14 10 10 11 11 11 10 10 10 9 10 10 9 9
11 12 14 15 15 15 10 17 15 6 9 10 11 9 8 9 7 7 6 6 4 6 7 7 7 8 11 11 6 9 10 11 8 8 11 15 11 9 10 10 10 10 10 12 9 9 9 8 9
14 14 16 15 9 7 12 18 5 5 10 12 12 10 10 11 8 6 6 5 5 4 10 7 8 10 12 9 7 8 7 7 6 8 9 12 12 9 9 10 9 9 9 9 8 8 8 8 8
13 14 16 11 9 5 12 15 5 5 10 12 12 12 11 10 11 8 6 7 7 6 9 11 11 12 14 12 8 10 9 6 4 6 8 9 10 10 10 10 9 11 9 8 8 8 8 8 8
16 15 16 13 9 10 13 15 11 7 12 13 12 12 12 11 12 9 9 8 9 9 9 12 10 13 12 9 9 8 7 5 4 5 8 12 10 13 11 10 10 10 9 9 8 9 7 8 8
11 12 14 6 4 7 13 15 12 5 12 13 12 13 14 13 10 11 11 10 10 10 9 10 13 12 9 9 9 9 10 9 7 7 11 11 11 13 12 10 10 11 11 11 10 8 10 8 8
18 15 13 6 5 10 14 14 14 4 9 11 13 14 15 15 13 13 13 14 12 12 12 13 11 16 11 9 8 6 9 10 10 11 12 12 12 14 12 11 11 12 9 10 11 10 8 8 9
21 19 14 12 3 11 11 16 17 11 8 8 12 13 15 17 17 16 15 15 15 16 15 13 14 13 14 12 8 6 6 5 9 10 12 12 15 16 15 14 11 13 10 10 12 11 11 8 9
19 17 16 12 9 11 7 14 15 11 15 12 12 13 14 17 17 17 17 17 16 15 15 16 14 15 13 14 12 15 12 12 10 12 12 13 15 15 16 15 14 13 11 11 12 11 10 11 9
15 6 13 14 13 13 14 11 13 8 14 15 14 14 15 16 19 19 19 18 16 16 16 16 17 17 15 15 15 13 12 9 9 9 12 13 15 16 15 14 15 14 11 12 14 12 12 11 11
4 8 8 7 8 12 15 12 11 12 13 10 9 9 10 13 17 18 17 16 16 15 16 16 17 17 17 17 17 17 17 14 12 12 10 9 8 10 12 15 12 13 12 12 11 13 13 12 11
15 12 8 10 10 10 4 11 15 5 10 11 9 8 8 10 15 18 20 19 18 19 19 17 19 19 18 18 21 21 20 19 19 18 14 15 9 8 10 12 14 11 12 11 10 11 11 12 12
21 17 6 6 9 9 8 9 11 7 7 11 9 9 4 10 12 18 21 20 20 21 21 20 21 21 22 20 21 22 25 16 15 18 16 13 14 14 13 14 15 16 14 13 12 10 11 12 12
13 20 16 10 2 5 7 5 10 9 8 6 9 7 8 11 12 15 19 21 21 21 22 21 21 21 22 23 20 21 20 22 19 20 18 14 16 14 16 17 17 17 16 16 15 12 14 14 14
11 11 9 10 11 13 10 9 6 3 7 8 7 7 5 6 8 12 17 20 20 20 19 20 21 22 22 22 21 20 22 23 21 18 20 20 18 19 19 19 17 17 17 17 17 14 15 16 13
14 13 8 6 10 8 8 5 3 6 11 12 11 3 6 9 7 8 13 16 18 18 20 21 21 22 22 22 21 21 20 22 21 19 20 20 19 19 21 21 20 20 20 20 18 19 18 18 16
12 17 18 10 11 6 5 6 5 6 8 11 9 11 13 11 10 6 11 14 18 20 20 21 21 22 23 21 21 21 20 21 21 21 21 20 20 19 19 19 20 21 20 19 19 19 17 18 18
Wind_Direction
181 198 220 230 234 244 187 140 340 237 220 348 272 269 322 317 294 328 55 163 298 180 174 166 163 175 159 154 144 144 155 148 147 141 137 135 127 128 126 122 121 121 120 119 117 115 113 112 107
171 181 219 254 256 226 126 122 198 33 11 324 261 267 257 285 319 304 194 136 216 184 178 177 168 172 158 149 152 150 150 148 144 141 134 136 128 127 126 122 122 121 124 125 123 120 120 115 107
171 228 250 244 248 257 210 173 162 113 245 233 249 264 315 273 186 273 164 165 201 203 188 183 169 172 156 154 153 147 148 143 142 137 137 136 135 126 128 124 123 125 129 129 124 122 121 113 107
181 188 202 245 223 194 253 163 243 266 188 224 277 258 197 231 213 187 175 222 157 231 198 156 166 180 161 158 152 149 145 143 138 139 137 141 139 129 130 131 136 134 132 125 125 125 121 113 105
204 235 239 239 232 242 232 265 289 268 298 236 239 276 265 183 177 216 269 245 193 248 204 181 174 182 179 166 155 148 143 139 142 143 140 144 139 132 134 142 135 130 131 124 127 128 124 118 112
194 272 232 234 206 202 226 263 262 257 258 229 249 282 267 99 225 188 274 251 207 194 214 194 185 184 176 167 163 149 147 142 143 145 143 145 140 134 138 141 133 136 125 123 128 129 124 123 122
251 229 255 270 245 217 193 138 239 288 265 265 124 267 346 218 12 315 253 240 226 179 267 189 197 186 176 183 172 148 147 141 143 147 144 136 136 129 133 125 128 126 125 129 132 131 132 129 123
245 257 255 230 218 220 127 227 279 270 324 92 251 249 282 77 300 257 238 235 199 206 188 159 138 157 191 173 251 163 148 142 141 145 140 129 130 124 123 121 130 127 131 133 137 134 128 124 123
219 237 245 229 218 215 168 273 135 337 262 211 210 269 341 285 228 256 242 214 201 222 167 158 140 172 187 133 136 182 151 143 143 141 146 125 141 142 140 143 137 135 135 138 139 129 125 122 121
216 229 243 249 220 251 275 270 293 240 238 246 240 224 229 223 245 247 250 246 202 157 226 171 170 196 186 156 113 93 143 154 137 147 153 148 144 150 144 136 137 137 134 138 132 131 131 156 140
212 242 228 222 244 288 294 287 242 257 274 258 267 219 205 220 243 255 255 292 247 136 272 177 174 175 154 145 130 140 182 138 129 145 145 142 146 141 151 142 146 143 149 147 145 142 166 147 146
238 229 235 244 262 252 277 296 263 256 279 303 230 196 193 210 228 274 248 212 215 202 158 124 158 159 178 167 183 176 171 155 147 162 187 151 154 158 154 152 158 154 168 153 154 170 140 156 150
232 223 217 236 251 256 279 267 279 266 233 209 170 170 191 214 229 186 283 283 160 164 180 150 131 147 147 153 167 167 146 146 155 175 170 164 159 153 155 156 158 163 166 167 170 160 161 162 154
216 243 228 236 252 247 255 269 258 250 170 186 183 178 190 201 214 218 189 262 179 153 153 126 137 140 150 148 164 142 131 132 156 179 158 168 159 161 152 157 160 163 168 166 171 163 161 166 153
238 241 223 226 245 258 245 260 235 252 193 195 202 186 195 211 196 225 221 193 261 179 143 147 129 120 143 147 136 135 124 130 166 170 162 165 152 161 152 157 164 162 165 166 165 168 167 165 168
225 235 247 229 230 231 227 262 185 165 198 209 207 200 197 205 210 202 196 195 168 176 156 153 151 134 143 138 119 118 121 123 142 143 161 156 152 151 160 155 169 164 153 165 165 174 168 173 174
213 240 222 236 212 224 221 257 115 185 210 224 207 207 209 201 206 186 202 191 180 179 158 163 162 149 145 133 125 138 147 149 130 153 147 156 164 170 184 164 168 169 169 168 168 177 177 170 176
228 225 245 243 162 216 225 248 270 222 236 231 212 214 212 209 207 187 184 192 181 182 173 179 159 158 145 142 126 137 148 151 147 170 166 180 176 196 192 170 168 182 177 169 172 182 177 181 176
274 260 255 233 160 241 239 253 259 233 227 222 219 214 215 213 194 184 177 188 183 178 172 160 161 167 148 159 157 156 167 175 179 179 193 192 192 199 191 180 179 189 187 179 176 182 179 181 177
236 246 246 248 260 242 250 250 263 222 228 230 221 215 217 209 193 190 181 176 192 188 180 175 162 171 170 170 168 163 163 181 187 191 209 212 199 199 191 192 191 197 193 183 187 189 187 194 185
229 236 245 256 184 243 271 254 249 221 219 227 228 234 213 209 201 192 189 189 189 191 173 181 168 165 168 167 166 153 128 139 198 205 212 206 207 202 198 200 198 197 199 192 196 194 200 210 202
230 224 246 249 256 258 205 259 250 239 247 204 228 217 218 206 205 197 191 190 191 190 181 177 174 173 169 161 167 170 170 174 195 209 214 211 211 207 202 200 206 203 205 199 205 197 206 232 214
244 216 232 240 244 267 236 257 261 254 253 246 233 209 212 208 203 198 198 192 190 185 183 182 178 181 176 175 176 172 184 192 186 200 208 215 204 204 203 204 207 209 207 199 219 201 206 221 241
227 186 194 214 233 242 244 239 262 243 239 255 234 200 202 203 203 200 197 193 188 183 186 183 183 185 181 182 181 186 186 188 187 191 195 200 193 195 196 206 209 216 211 208 214 211 207 222 235
219 199 208 214 208 236 214 208 245 265 262 268 261 253 149 193 200 196 193 193 191 188 187 186 188 189 188 191 193 192 196 194 194 190 195 192 193 192 193 207 210 210 219 221 222 222 218 217 228
202 193 209 221 217 226 151 222 245 272 299 281 251 267 229 190 196 198 196 196 195 191 188 192 192 192 191 191 199 204 205 203 205 199 196 203 202 200 196 203 214 217 220 226 228 230 230 230 224
192 225 235 264 222 260 206 204 264 237 262 232 238 237 225 187 200 206 200 197 198 194 192 195 198 198 195 196 197 202 204 209 207 207 207 207 210 207 208 213 218 222 223 226 226 229 230 231 233
220 172 183 213 228 232 231 242 257 208 253 297 249 236 280 284 212 209 203 198 199 197 192 194 205 203 200 200 203 203 205 210 212 210 210 212 208 210 209 211 215 219 223 225 228 232 232 235 230
200 210 235 256 236 249 245 206 233 301 11 338 317 308 325 328 296 215 202 197 197 195 197 195 200 205 205 204 205 207 207 208 211 215 218 220 218 217 218 217 218 223 222 223 229 231 233 229 230
211 221 220 226 194 232 288 237 114 26 350 342 336 324 321 323 327 272 198 190 193 197 198 199 198 203 206 204 205 210 212 211 212 215 217 216 222 223 227 227 231 233 235 234 229 231 228 233 229